Stündliche Wetter Abrykosove

Heute, 21 Juni, Montag

Zeit Temperatur Niederschläge Wind Luftdruck Luftfeuchtigkeit
00:00 +21°C° 0 mm 2 m/S 755 mmHg 92%
01:00 +21°C° 0 mm 2 m/S 755 mmHg 92%
02:00 +21°C° 0 mm 2 m/S 755 mmHg 93%
03:00 +22°C° 0 mm 1 m/S 755 mmHg 93%
04:00 +22°C° 0 mm 1 m/S 755 mmHg 93%
05:00 +22°C° 0 mm 1 m/S 755 mmHg 92%
06:00 +24°C° 0 mm 1 m/S 755 mmHg 86%
07:00 +25°C° 0 mm 1 m/S 755 mmHg 80%
08:00 +27°C° 0 mm 1 m/S 755 mmHg 74%
09:00 +28°C° 0 mm 2 m/S 755 mmHg 69%
10:00 +29°C° 0 mm 2 m/S 755 mmHg 63%
11:00 +30°C° 0 mm 3 m/S 755 mmHg 58%
12:00 +31°C° 0 mm 3 m/S 755 mmHg 55%
13:00 +31°C° 0 mm 3 m/S 755 mmHg 53%
14:00 +33°C° 0 mm 4 m/S 754 mmHg 50%
15:00 +32°C° 0 mm 4 m/S 755 mmHg 54%
16:00 +30°C° 0 mm 4 m/S 755 mmHg 58%
17:00 +29°C° 0 mm 4 m/S 755 mmHg 61%
18:00 +27°C° 0.1 mm 4 m/S 755 mmHg 68%
19:00 +26°C° 0.1 mm 3 m/S 755 mmHg 75%
20:00 +24°C° 0.1 mm 2 m/S 754 mmHg 82%
21:00 +24°C° 0 mm 1 m/S 754 mmHg 83%
22:00 +24°C° 0 mm 1 m/S 754 mmHg 83%
23:00 +23°C° 0 mm 1 m/S 754 mmHg 83%

Morgen, 22 Juni, Dienstag

Zeit Temperatur Niederschläge Wind Luftdruck Luftfeuchtigkeit
00:00 +23°C° 0 mm 1 m/S 754 mmHg 83%
01:00 +23°C° 0 mm 1 m/S 754 mmHg 83%
02:00 +22°C° 0 mm 1 m/S 754 mmHg 82%
03:00 +23°C° 0 mm 1 m/S 754 mmHg 82%
04:00 +23°C° 0 mm 1 m/S 754 mmHg 81%
05:00 +23°C° 0 mm 1 m/S 754 mmHg 80%
06:00 +25°C° 0 mm 1 m/S 754 mmHg 74%
07:00 +26°C° 0 mm 1 m/S 754 mmHg 67%
08:00 +28°C° 0 mm 1 m/S 754 mmHg 61%
09:00 +29°C° 0.5 mm 1 m/S 754 mmHg 60%
10:00 +30°C° 0.5 mm 2 m/S 754 mmHg 59%
11:00 +31°C° 0.5 mm 2 m/S 754 mmHg 58%
12:00 +31°C° 0.1 mm 2 m/S 754 mmHg 60%
13:00 +31°C° 0.1 mm 3 m/S 754 mmHg 62%
14:00 +31°C° 0.1 mm 3 m/S 754 mmHg 63%
15:00 +30°C° 0.3 mm 4 m/S 755 mmHg 66%
16:00 +29°C° 0.3 mm 4 m/S 755 mmHg 69%
17:00 +28°C° 0.3 mm 5 m/S 755 mmHg 72%
18:00 +27°C° 0.3 mm 4 m/S 755 mmHg 77%
19:00 +26°C° 0.3 mm 3 m/S 755 mmHg 83%
20:00 +24°C° 0.3 mm 3 m/S 755 mmHg 88%
21:00 +24°C° 0.1 mm 2 m/S 755 mmHg 89%
22:00 +23°C° 0.1 mm 2 m/S 755 mmHg 90%
23:00 +23°C° 0.1 mm 1 m/S 755 mmHg 91%

übermorgen, 23 Juni, Mittwoch

Zeit Temperatur Niederschläge Wind Luftdruck Luftfeuchtigkeit
00:00 +23°C° 0 mm 2 m/S 755 mmHg 91%
01:00 +21°C° 0 mm 2 m/S 755 mmHg 92%
02:00 +21°C° 0 mm 2 m/S 755 mmHg 93%
03:00 +21°C° 0.1 mm 2 m/S 755 mmHg 93%
04:00 +21°C° 0.1 mm 2 m/S 756 mmHg 92%
05:00 +22°C° 0.1 mm 1 m/S 756 mmHg 92%
06:00 +24°C° 0.2 mm 1 m/S 756 mmHg 85%
07:00 +25°C° 0.2 mm 1 m/S 756 mmHg 79%
08:00 +26°C° 0.2 mm 2 m/S 757 mmHg 72%
09:00 +28°C° 0 mm 2 m/S 756 mmHg 67%
10:00 +29°C° 0 mm 2 m/S 756 mmHg 62%
11:00 +30°C° 0 mm 3 m/S 756 mmHg 57%
12:00 +31°C° 0 mm 3 m/S 756 mmHg 56%
13:00 +31°C° 0 mm 3 m/S 756 mmHg 55%
14:00 +31°C° 0 mm 3 m/S 756 mmHg 53%
15:00 +30°C° 0 mm 3 m/S 757 mmHg 58%
16:00 +29°C° 0 mm 4 m/S 757 mmHg 63%
17:00 +28°C° 0 mm 4 m/S 757 mmHg 67%
18:00 +27°C° 0.1 mm 3 m/S 757 mmHg 73%
19:00 +26°C° 0.1 mm 3 m/S 757 mmHg 78%
20:00 +25°C° 0.1 mm 2 m/S 757 mmHg 83%
21:00 +24°C° 0 mm 2 m/S 757 mmHg 86%
22:00 +24°C° 0 mm 2 m/S 757 mmHg 88%
23:00 +23°C° 0 mm 2 m/S 757 mmHg 90%

24 Juni, Donnerstag

Zeit Temperatur Niederschläge Wind Luftdruck Luftfeuchtigkeit
00:00 +23°C° 0 mm 1 m/S 757 mmHg 91%
01:00 +23°C° 0 mm 1 m/S 757 mmHg 91%
02:00 +23°C° 0 mm 1 m/S 757 mmHg 91%
03:00 +23°C° 0 mm 1 m/S 757 mmHg 91%
04:00 +23°C° 0 mm 1 m/S 757 mmHg 90%
05:00 +23°C° 0 mm 1 m/S 757 mmHg 90%
06:00 +24°C° 0 mm 1 m/S 757 mmHg 84%
07:00 +25°C° 0 mm 2 m/S 757 mmHg 78%
08:00 +27°C° 0 mm 3 m/S 758 mmHg 72%
09:00 +27°C° 0 mm 3 m/S 758 mmHg 70%
10:00 +27°C° 0 mm 3 m/S 758 mmHg 67%
11:00 +28°C° 0 mm 3 m/S 758 mmHg 65%
12:00 +27°C° 0.2 mm 3 m/S 758 mmHg 68%
13:00 +26°C° 0.2 mm 3 m/S 758 mmHg 70%
14:00 +25°C° 0.2 mm 2 m/S 758 mmHg 73%
15:00 +25°C° 0.4 mm 2 m/S 758 mmHg 74%
16:00 +24°C° 0.4 mm 2 m/S 758 mmHg 75%
17:00 +24°C° 0.4 mm 1 m/S 758 mmHg 77%
18:00 +23°C° 0.1 mm 1 m/S 758 mmHg 79%
19:00 +23°C° 0.1 mm 1 m/S 758 mmHg 81%
20:00 +22°C° 0.1 mm 1 m/S 758 mmHg 84%
21:00 +22°C° 0.1 mm 1 m/S 758 mmHg 85%
22:00 +22°C° 0.1 mm 1 m/S 758 mmHg 86%
23:00 +22°C° 0.1 mm 1 m/S 758 mmHg 87%

25 Juni, Freitag

Zeit Temperatur Niederschläge Wind Luftdruck Luftfeuchtigkeit
00:00 +22°C° 0.3 mm 1 m/S 758 mmHg 87%
01:00 +21°C° 0.3 mm 1 m/S 758 mmHg 88%
02:00 +21°C° 0.3 mm 1 m/S 757 mmHg 89%
03:00 +22°C° 0 mm 1 m/S 757 mmHg 88%
04:00 +22°C° 0 mm 1 m/S 757 mmHg 87%
05:00 +22°C° 0 mm 1 m/S 757 mmHg 87%
06:00 +23°C° 0 mm 1 m/S 757 mmHg 81%
07:00 +25°C° 0 mm 1 m/S 757 mmHg 75%
08:00 +26°C° 0 mm 1 m/S 757 mmHg 68%
09:00 +27°C° 0 mm 1 m/S 757 mmHg 64%
10:00 +29°C° 0 mm 1 m/S 757 mmHg 59%
11:00 +30°C° 0 mm 1 m/S 757 mmHg 55%
12:00 +30°C° 0.1 mm 2 m/S 757 mmHg 54%
13:00 +31°C° 0.1 mm 3 m/S 757 mmHg 53%
14:00 +31°C° 0.1 mm 3 m/S 756 mmHg 52%
15:00 +30°C° 0.1 mm 3 m/S 756 mmHg 55%
16:00 +30°C° 0.1 mm 3 m/S 757 mmHg 58%
17:00 +29°C° 0.1 mm 3 m/S 757 mmHg 61%
18:00 +28°C° 0.1 mm 2 m/S 757 mmHg 67%
19:00 +26°C° 0.1 mm 2 m/S 757 mmHg 73%
20:00 +25°C° 0.1 mm 2 m/S 757 mmHg 79%
21:00 +24°C° 0 mm 2 m/S 756 mmHg 80%
22:00 +24°C° 0 mm 2 m/S 756 mmHg 82%
23:00 +22°C° 0 mm 3 m/S 756 mmHg 84%

26 Juni, Samstag

Zeit Temperatur Niederschläge Wind Luftdruck Luftfeuchtigkeit
00:00 +22°C° 0 mm 3 m/S 756 mmHg 85%
01:00 +21°C° 0 mm 3 m/S 756 mmHg 86%
02:00 +21°C° 0 mm 3 m/S 757 mmHg 87%
03:00 +21°C° 0 mm 2 m/S 757 mmHg 87%
04:00 +21°C° 0 mm 2 m/S 757 mmHg 86%
05:00 +21°C° 0 mm 2 m/S 757 mmHg 85%
06:00 +24°C° 0.1 mm 2 m/S 757 mmHg 78%
07:00 +26°C° 0.1 mm 2 m/S 756 mmHg 70%
08:00 +27°C° 0.1 mm 2 m/S 756 mmHg 63%
09:00 +28°C° 0.1 mm 2 m/S 756 mmHg 59%
10:00 +30°C° 0.1 mm 2 m/S 756 mmHg 55%
11:00 +31°C° 0.1 mm 3 m/S 756 mmHg 51%
12:00 +31°C° 0 mm 3 m/S 756 mmHg 50%
13:00 +33°C° 0 mm 4 m/S 756 mmHg 49%
14:00 +33°C° 0 mm 4 m/S 756 mmHg 47%
15:00 +32°C° 0 mm 4 m/S 755 mmHg 49%
16:00 +32°C° 0 mm 4 m/S 755 mmHg 50%
17:00 +30°C° 0 mm 4 m/S 755 mmHg 52%
18:00 +28°C° 0.1 mm 4 m/S 755 mmHg 58%
19:00 +27°C° 0.1 mm 3 m/S 755 mmHg 65%
20:00 +25°C° 0.1 mm 3 m/S 755 mmHg 71%
21:00 +24°C° 0.1 mm 3 m/S 755 mmHg 73%
22:00 +24°C° 0.1 mm 3 m/S 755 mmHg 76%
23:00 +22°C° 0.1 mm 3 m/S 755 mmHg 78%
Mehr zeigen

Wir brauchen deine Erlaubnis

Meteoprog und unser Service Anbieter werden persönliche Daten aufbewahren, so wie Cookies, Geräte Bezeichnung oder ähnliche Technologien von deinem Gerät und Prozess, so wie Persönliche Daten Inhalte und Werbungen, genauso wie social Media und den Verkehr zu analysieren.

  • Aufbewahrung und/oder Zugang zu deiner Geräte Informationen.

    Cookies, Geräte Bezeichnung oder andere Informationen, können aufbewahrt oder Zugang zu deinem Gerät erhalten, für den Grund, der oben angegeben wird.

  • Personalisierte Werbung und Inhalte, Messungen, Einblick in das Publikum und Produkt Entwicklung.

    Werbungen und Inhalte können personalisiert werden, basierend auf ein Profil. Mehr Daten können besser personalisierte Werbungen und Inhalte hinzufügen. Werbung und Inhalte können gezeigt und gemessen werden. Einblicke über das Publikum, welche die Werbung gesehen haben und den Inhalt, können abgeleitet werden. So wie Daten können genutzt werden, um es zu verbessern oder die Benutzer Erfahrung zu verbessern das System und die Software.

Wenn du “Ich stimme zu” klickst, erlaubst du uns, die Cookies zu benutzen die Geräte Bezeichnung, den Web oder ähnliche Technologien zu benutzen. Deine Settings, können in deinem Gerät bei deinem Browser geändert werden.

Für den bestimmten Zweck, berechtigten Interessen beruhen darauf, mehr als auf den Inhalt. Du kannst mehr darüber in unseren Privaten und Cookie Politik lesen.